Content
SEND FEEDBACK

Cameroon Flag

DOUALA, CAMEROON


Home > Africa > Cameroon
Elevation: 9 meters     Latitude: 04 00N     Longitude: 009 44E

WEATHER
 
SELECT A DAY
Number of Records: 135,821;   Date Range: 12/24/98 - 3/22/16
 
SHARE

PRINT THIS DATA

[ ← Previous Day ]
WEATHER ALMANAC - 12 FEBRUARY, 2013
[ Next Day → ]
[ °F ]   °C
Weather ElementAverageHighLow
Temperature28.8 °C33 °C (2:00 pm)26 °C (4:00 am)
Dewpoint25.6 °C26 °C (1:00 am)25 °C (4:00 am)
Humidity82.5 %100 % (7:00 am)58 % (1:00 pm)
Barometer1008.5 hPa1010.2 hPa (1:00 am)1007.1 hPa (2:00 pm)
Wind Speed7.9 km/h18.5 km/h (10:00 am)
Weather ElementAverage
Visibility9 km
Wind DirectionSSE (159.2 °)

Weather ElementTotal
Precipitation---
Cooling Degree Days11.2 (Base 18.3)
Growing Degree Days19.5 (Base 10)
Averaged from 27 records on 12 February, 2013
WEATHER CONDITIONS BREAKOUT
WIND DIRECTION BREAKOUT
WEATHER BY HOUR - 12 FEBRUARY, 2013
[ °F ]   °C
Local TimeTemperatureDewpointHumidityBarometerVisibilityWind DirectionWind SpeedGust SpeedPrecipitationEventsConditions
1:00 AM27.8 °C25.6 °C85 %1009.8 hPa9.7 kmSW (220°)7.4 km/hPartly Cloudy
1:00 AM28 °C26 °C89 %1010.2 hPa10 kmSW (220°)7.4 km/hPartly Cloudy
2:00 AM28 °C26 °C89 %1009.1 hPa10 kmWest (260°)7.4 km/hThunderstormThunderstorm
3:00 AM27 °C26 °C94 %1008.1 hPa10 kmCalmThunderstormThunderstorm
4:00 AM26 °C25 °C94 %1008.1 hPa10 kmCalmThunderstormThunderstorm
5:00 AM26 °C25 °C94 %1008.1 hPa10 kmCalmThunderstormThunderstorm
6:00 AM26 °C25 °C94 %1008.1 hPa10 kmCalmThunderstormThunderstorm
7:00 AM26.1 °C25.6 °C95 %1008.8 hPa1.6 kmCalmThunderstormThunderstorm
7:00 AM26 °C26 °C100 %1009.1 hPa2.3 kmCalmThunderstormScattered Clouds
8:00 AM27 °C26 °C94 %1009.1 hPa4 kmSW (220°)7.4 km/hThunderstormPartly Cloudy
9:00 AM28 °C26 °C89 %1009.1 hPa8 kmNNW (340°)3.7 km/hPartly Cloudy
10:00 AM29 °C26 °C84 %1010.2 hPa10 kmSouth (180°)18.5 km/hPartly Cloudy
11:00 AM30 °C26 °C79 %1009.1 hPa10 kmSouth (180°)14.8 km/hPartly Cloudy
12:00 PM31 °C25 °C70 %1009.1 hPa10 kmSW (220°)3.7 km/hPartly Cloudy
1:00 PM32.2 °C25 °C58 %1008.8 hPa9.7 kmWest (260°)14.8 km/hThunderstormThunderstorm
1:00 PM32 °C25 °C66 %1008.1 hPa10 kmWest (260°)14.8 km/hPartly Cloudy
2:00 PM33 °C26 °C66 %1007.1 hPa10 kmWSW (240°)18.5 km/hThunderstormThunderstorm
3:00 PM32 °C25 °C66 %1007.1 hPa10 kmSW (220°)18.5 km/hPartly Cloudy
4:00 PM31 °C25 °C70 %1007.1 hPa10 kmSW (220°)14.8 km/hPartly Cloudy
5:00 PM31 °C25 °C70 %1007.1 hPa10 kmSW (220°)14.8 km/hMostly Cloudy
6:00 PM30 °C25 °C74 %1007.1 hPa10 kmSW (220°)11.1 km/hMostly Cloudy
7:00 PM28.9 °C25.6 °C77 %1007.8 hPa9.7 kmSW (220°)11.1 km/hPartly Cloudy
7:00 PM29 °C26 °C84 %1007.1 hPa10 kmSW (220°)11.1 km/hMostly Cloudy
8:00 PM29 °C26 °C84 %1008.1 hPa10 kmSW (220°)11.1 km/hMostly Cloudy
9:00 PM29 °C26 °C84 %1009.1 hPa10 kmCalmMostly Cloudy
10:00 PM28 °C26 °C89 %1009.1 hPa10 kmCalmPartly Cloudy
11:00 PM28 °C26 °C89 %1010.2 hPa10 kmCalmPartly Cloudy
Hourly data recorded from FKKD, located 0 kilometers away from Douala, Cameroon




STORIES FROM OUR PARTNERS